Other Surface Observations
Issued by NWS Tucson, AZ

Home | Current Version | Previous Version | Text Only | Print | Product List | Glossary On
Versions: 1 2 3 4 5 6 7 8 9 10 11 12 13 14 15 16 17 18 19 20 21 22 23 24 25 26 27 28 29 30 31 32 33 34 35 36 37 38 39 40 41 42 43 44 45 46 47 48 49 50
687
SXUS55 KTWC 261215
OSOTWC

WEATHER ROUNDUP FOR SOUTHEAST ARIZONA
NATIONAL WEATHER SERVICE TUCSON AZ
515 AM MST THU MAY 26 2016

AZZ504>506-514-261315-
LOCATION       SKY/WX    TMP DP  RH WIND       PRES   REMARKS
TUCSON         CLEAR     57  24  28 S3        29.99R
DAVIS-MONTHAN  CLEAR     56  24  29 CALM      29.97S
CHILDRENS PARK N/A      N/A N/A  29 SE0               PIMA CO DEQ
ALVERNON/22ND  N/A       60 N/A N/A SE1               PIMA CO DEQ
CHERRY/GLENN   N/A      N/A N/A N/A N/A               PIMA CO DEQ
TANGERINE      N/A       60 N/A N/A NW4               PIMA CO DEQ
CONTL RANCH    N/A       60  27  28 N2                PIMA CO DEQ
GRANT/1ST      N/A       60  25  26 N/A               PIMA CO DEQ
CRAYCROFT/22ND N/A       59  23  25 SW2               PIMA CO DEQ
GOLFLINKS/KOLB N/A      N/A N/A N/A N/A               PIMA CO DEQ
AJO/12TH       N/A       57  23  27 S5                PIMA CO DEQ
SAGUARO EAST   N/A       15 -14  24 S5                PIMA CO DEQ
FAIRGROUNDS    N/A       54 N/A N/A S7                PIMA CO DEQ
SAGUARO        N/A       51  22  32 N2                *SABINO CYN
SAN CARLOS     N/A       55  15  20 NE2               *SAN CARLOS
GREEN VALLEY   N/A       55  26  33 S4                PIMA CO DEQ
HORSE CAMP CYN N/A       55  23  28 E3                *ARAVAIPA CYN
RINCON MTNS    N/A       36  18  47 SW3G10            *NR MANNING CAMP
$$

AZZ509>511-261315-
LOCATION       SKY/WX    TMP DP  RH WIND       PRES   REMARKS
SAFFORD        CLEAR     62  15  16 NW13      29.95R
STRAY HORSE    N/A       42  14  32 NW4G10            *
TRAIL CABIN    N/A       46  12  25 SW3               *N OF GRANVILLE
BLACK HILLS    NOT AVBL
DRY LAKE       N/A       38  10  31 W3                *NATANES MTNS
NOON CREEK     N/A       56  22  26 SW4G13            *PINALENO MTNS
COLUMBINE      N/A       31  15  52 SW5G12            *PINALENO MTNS
GUTHRIE        N/A       50  17  27 W10G19            *SW OF GUTHRIE
$$

AZZ502-503-513-261315-
LOCATION       SKY/WX    TMP DP  RH WIND       PRES   REMARKS
NOGALES        CLEAR     48  26  42 E5        30.00S
SELLS          N/A       51  26  37 E5                *
SASABE         N/A       43  25  48 S5                *ALTAR VLY
HOPKINS        N/A       42  23  47 W6G13             *SANTA RITA MTNS
CARR CYN       N/A       53  24  32 N3G10             *W OF HEREFORD
$$

AZZ507-508-512-261315-
LOCATION       SKY/WX    TMP DP  RH WIND       PRES   REMARKS
SIERRA VISTA   CLEAR     51  25  37 VRB1      30.03S
DOUGLAS        CLEAR     60  23  24 CALM      30.01S
EMPIRE MTNS    NOT AVBL
MULESHOE RANCH N/A       55  16  21 NW8G15            *PRESERVE
HEADQUARTERS   NOT AVBL
$$

.............................NOTES.............................
THIS IS AN AUTOMATED COLLECTIVE WITH MINIMAL QUALITY CONTROL.
PIMA CO DEQ SITES HAVE NONSTANDARD WIND SENSOR HEIGHTS.
PIMA CO DEQ SITES DO NOT REPORT WIND GUSTS.
* INDICATES WIND SENSORS LOCATED AT 20 FEET INSTEAD OF 33 FEET.
..............................KEY..............................
SKY/WX - SKY CONDITION/WEATHER
TMP    - TEMPERATURE IN FAHRENHEIT
DP     - DEWPOINT IN FAHRENHEIT
RH     - RELATIVE HUMIDITY IN PERCENT
WIND   - DIRECTION AND SPEED IN MILES PER HOUR (MPH)
VRB    - VARIABLE WIND DIRECTION
PRES   - MEAN SEA LEVEL PRESSURE IN INCHES OF MERCURY
         F - FALLING PRESSURE   R - RISING PRESSURE
         S - STEADY PRESSURE
VSB    - VISIBILITY IN MILES
HX     - HEAT INDEX IN FAHRENHEIT
WCI    - WIND CHILL INDEX IN FAHRENHEIT
N/A    - NOT AVAILABLE
AFB    - AIR FORCE BASE
         DAVIS-MONTHAN IS DAVIS-MONTHAN AIR FORCE BASE
CYN    - CANYON
MTNS   - MOUNTAINS
NCA    - NATIONAL CONSERVATION AREA
NR     - NEAR
VLY    - VALLEY
CONTL  - CONTINENTAL
PIMA CO DEQ - PIMA COUNTY DEPT OF ENVIRONMENTAL QUALITY



USA.gov is the U.S. government's official web portal to all federal, state and local government web resources and services.